Location: Bishop�s Knoyle
(51.0728°N, 2.1714°W)
Time: 13:51:15
(UTC+00:00)

Envisat - Pass Details

Date: 21 September 2021
Orbit: 764 x 766 km, 98.2° (Epoch: 23 October)

Event Time Altitude Azimuth Distance (km) Brightness Sun altitude
Rises 04:44:11 0° 20° (NNE) 3,246 6.8 -11.6°
Reaches altitude 10° 04:46:41 10° 29° (NNE) 2,314 6.2 -11.2°
Maximum altitude 04:51:22 36° 96° (E) 1,205 4.7 -10.5°
Drops below altitude 10° 04:56:01 10° 162° (SSE) 2,297 5.5 -9.8°
Sets 04:58:29 0° 171° (S) 3,218 6.2 -9.4°
